TimeAKST,TemperatureF,Dew PointF,Humidity,Sea Level PressureIn,VisibilityMPH,Wind Direction,Wind SpeedMPH,Gust SpeedMPH,PrecipitationIn,Events,Conditions,WindDirDegrees,DateUTC
12:53 AM,37.0,34.0,89,29.81,7.0,SE,12.7,-,0.07,Rain,Rain,130,2013-02-18 09:53:00
1:53 AM,36.0,34.0,93,29.80,6.0,ESE,11.5,19.6,0.10,Rain,Rain,120,2013-02-18 10:53:00
3:34 AM,35.6,33.8,93,29.76,7.0,ESE,11.5,-,0.06,Rain,Light Rain,120,2013-02-18 12:34:00
3:45 AM,35.6,33.8,93,29.76,6.0,SE,11.5,-,0.07,Rain,Rain,130,2013-02-18 12:45:00
3:53 AM,36.0,34.0,93,29.76,7.0,SE,11.5,-,0.08,Rain,Rain,130,2013-02-18 12:53:00
4:13 AM,35.6,33.8,93,29.75,8.0,ESE,11.5,-,0.03,Rain,Light Rain,120,2013-02-18 13:13:00
4:53 AM,36.0,34.0,93,29.75,7.0,ESE,12.7,-,0.08,Rain,Light Rain,120,2013-02-18 13:53:00
5:02 AM,35.6,33.8,93,29.74,8.0,ESE,10.4,-,0.01,Rain,Light Rain,120,2013-02-18 14:02:00
5:53 AM,36.0,35.1,97,29.74,9.0,ESE,10.4,18.4,0.07,Rain,Light Rain,120,2013-02-18 14:53:00
6:38 AM,37.4,35.6,93,29.72,8.0,ESE,10.4,-,0.04,Rain,Light Rain,120,2013-02-18 15:38:00
6:53 AM,37.0,35.1,93,29.73,9.0,ESE,10.4,-,0.05,Rain,Light Rain,120,2013-02-18 15:53:00
7:53 AM,37.0,35.1,93,29.72,7.0,ESE,9.2,-,0.04,Rain,Light Rain,120,2013-02-18 16:53:00
8:53 AM,37.9,35.1,89,29.72,10.0,ESE,8.1,-,0.04,Rain,Light Rain,120,2013-02-18 17:53:00
9:53 AM,39.0,36.0,89,29.71,10.0,ESE,9.2,-,0.02,Rain,Light Rain,110,2013-02-18 18:53:00
10:53 AM,39.9,36.0,86,29.72,10.0,ESE,9.2,-,0.00,Rain,Light Rain,120,2013-02-18 19:53:00
11:21 AM,39.2,37.4,93,29.71,10.0,ESE,8.1,-,0.01,Rain,Light Rain,120,2013-02-18 20:21:00
11:40 AM,41.0,37.4,87,29.71,10.0,Variable,5.8,-,0.01,Rain,Light Rain,0,2013-02-18 20:40:00
11:53 AM,41.0,36.0,82,29.72,10.0,SE,6.9,-,0.01,Rain,Light Rain,130,2013-02-18 20:53:00
12:12 PM,41.0,35.6,81,29.72,10.0,ESE,6.9,-,0.00,,Overcast,110,2013-02-18 21:12:00
12:19 PM,41.0,35.6,81,29.72,10.0,ESE,8.1,-,0.00,,Overcast,110,2013-02-18 21:19:00
12:34 PM,41.0,35.6,81,29.72,10.0,ESE,6.9,-,0.00,,Overcast,110,2013-02-18 21:34:00
12:53 PM,42.1,37.0,82,29.73,10.0,ESE,8.1,-,0.00,,Overcast,120,2013-02-18 21:53:00
1:53 PM,42.1,36.0,79,29.73,10.0,Variable,3.5,-,0.00,Rain,Light Rain,0,2013-02-18 22:53:00
2:44 PM,41.0,37.4,87,29.73,10.0,NNE,3.5,-,0.00,Rain,Light Rain,30,2013-02-18 23:44:00
2:53 PM,41.0,37.0,86,29.74,10.0,Calm,Calm,-,0.00,Rain,Light Rain,0,2013-02-18 23:53:00
3:37 PM,39.2,37.4,93,29.73,10.0,Calm,Calm,-,0.00,Rain,Light Rain,0,2013-02-19 00:37:00
3:53 PM,39.9,36.0,86,29.75,10.0,Calm,Calm,-,0.00,,Overcast,0,2013-02-19 00:53:00
4:53 PM,39.0,36.0,89,29.76,10.0,Calm,Calm,-,N/A,,Overcast,0,2013-02-19 01:53:00
5:53 PM,39.0,35.1,86,29.77,10.0,Calm,Calm,-,N/A,,Overcast,0,2013-02-19 02:53:00
6:53 PM,36.0,35.1,97,29.78,10.0,Calm,Calm,-,N/A,,Overcast,0,2013-02-19 03:53:00
7:53 PM,36.0,35.1,97,29.80,10.0,Calm,Calm,-,N/A,,Overcast,0,2013-02-19 04:53:00
8:53 PM,37.0,36.0,96,29.81,10.0,Calm,Calm,-,N/A,,Overcast,0,2013-02-19 05:53:00
9:53 PM,36.0,35.1,97,29.83,10.0,Calm,Calm,-,N/A,,Overcast,0,2013-02-19 06:53:00
10:53 PM,35.1,34.0,96,29.85,10.0,Calm,Calm,-,N/A,,Overcast,0,2013-02-19 07:53:00
11:12 PM,35.6,33.8,93,29.84,10.0,Calm,Calm,-,N/A,,Overcast,0,2013-02-19 08:12:00
11:53 PM,34.0,33.1,96,29.85,10.0,Calm,Calm,-,N/A,,Overcast,0,2013-02-19 08:53:00